Weather History for St. Paul, MN

Change the Weather History Date:

Thursday, December 8, 2011

  Actual Average Record
Temperature  
Mean Temperature 22 °F -  
Max Temperature 28 °F 32 °F 46 °F (1999)
Min Temperature 14 °F 18 °F -2 °F (2007)
Degree Days  
Heating Degree Days 44    
Moisture  
Dew Point 7 °F    
Average Humidity 55    
Maximum Humidity 72    
Minimum Humidity 40    
Precipitation  
Precipitation 0.00 in - - ()
Sea Level Pressure  
Sea Level Pressure 30.18 in    
Wind  
Wind Speed 12 mph (West)    
Max Wind Speed 20 mph    
Max Gust Speed 28 mph    
Visibility 10 miles    
Events      
Averages and records for this station are not official NWS values.
T = Trace of Precipitation, MM = Missing Value Source: NWS Daily Summary

Daily Weather History Graph

Daily Weather History Graph

Search for Another Location

Airport:

Trip Planner

Search our weather history database for the weather conditions in past years. The results will help you decide how hot, cold, wet, or windy it might be!

Date:

Astronomy

Dec. 08, 2011 Rise Set
Actual Time 7:37 AM CST 4:30 PM CST
Civil Twilight 7:03 AM CST 5:04 PM CST
Nautical Twilight 6:26 AM CST 5:41 PM CST
Astronomical Twilight 5:51 AM CST 6:16 PM CST
Moon 3:11 PM CST (12/8) 5:48 AM CST (12/8)
Length of Visible Light 10h 00m
Length of Day
8h 53m
Waxing Gibbous, 97% of the Moon is Illuminated
Dec 8
Waxing Gibbous
Dec 10
Full
Dec 17
Last Quarter
Dec 24
New
Jan 1
First Quarter

Hourly Weather History & Observations

Time (CST) Temp. Windchill Dew Point Humidity Pressure Visibility Wind Dir Wind Speed Gust Speed Precip Events Conditions
12:53 AM 28.0 °F 16.1 °F 16.0 °F 61% 30.12 in 10.0 mi WNW 16.1 mph 26.5 mph N/A   Scattered Clouds
1:53 AM 26.1 °F 15.0 °F 12.9 °F 58% 30.12 in 10.0 mi WNW 12.7 mph - N/A   Partly Cloudy
2:53 AM 23.0 °F 14.7 °F 12.0 °F 63% 30.14 in 10.0 mi West 6.9 mph - N/A   Clear
3:53 AM 23.0 °F 17.0 °F 12.0 °F 63% 30.14 in 10.0 mi West 4.6 mph - N/A   Mostly Cloudy
4:53 AM 23.0 °F 17.0 °F 12.9 °F 65% 30.13 in 10.0 mi SW 4.6 mph - N/A   Overcast
5:53 AM 23.0 °F 14.7 °F 15.1 °F 72% 30.15 in 10.0 mi WSW 6.9 mph - N/A   Overcast
6:53 AM 21.9 °F 11.7 °F 12.9 °F 68% 30.16 in 10.0 mi WSW 9.2 mph - N/A   Clear
7:53 AM 21.0 °F 6.6 °F 10.9 °F 65% 30.18 in 10.0 mi WNW 17.3 mph 25.3 mph N/A   Clear
8:53 AM 21.0 °F 6.6 °F 12.0 °F 68% 30.21 in 10.0 mi West 17.3 mph 24.2 mph N/A   Clear
9:53 AM 21.9 °F 9.8 °F 10.0 °F 60% 30.21 in 10.0 mi WNW 12.7 mph 19.6 mph N/A   Clear
10:53 AM 23.0 °F 11.7 °F 6.1 °F 48% 30.21 in 10.0 mi West 11.5 mph 20.7 mph N/A   Clear
11:53 AM 24.1 °F 9.8 °F 3.0 °F 40% 30.19 in 10.0 mi West 19.6 mph 27.6 mph N/A   Clear
12:53 PM 24.1 °F 9.8 °F 3.9 °F 42% 30.18 in 10.0 mi West 19.6 mph 27.6 mph N/A   Clear
1:53 PM 23.0 °F 9.6 °F 5.0 °F 46% 30.18 in 10.0 mi West 16.1 mph 23.0 mph N/A   Clear
2:53 PM 21.2 °F 8.9 °F 3.2 °F 46% 30.14 in 10.0 mi West 12.7 mph - N/A   Clear
3:53 PM 21.0 °F 7.6 °F 3.0 °F 46% 30.17 in 10.0 mi WSW 15.0 mph - N/A   Clear
4:53 PM 19.9 °F 8.6 °F 3.0 °F 48% 30.18 in 10.0 mi West 10.4 mph 20.7 mph N/A   Clear
5:53 PM 19.0 °F 8.2 °F 3.0 °F 50% 30.19 in 10.0 mi WSW 9.2 mph - N/A   Clear
6:53 PM 18.0 °F 7.7 °F 1.9 °F 50% 30.20 in 10.0 mi West 8.1 mph - N/A   Clear
7:53 PM 18.0 °F 6.9 °F 1.0 °F 48% 30.21 in 10.0 mi West 9.2 mph - N/A   Clear
8:53 PM 17.1 °F 10.0 °F 1.9 °F 52% 30.22 in 10.0 mi WSW 4.6 mph - N/A   Clear
9:53 PM 15.8 °F 6.1 °F 1.4 °F 53% 30.19 in 10.0 mi West 6.9 mph - N/A   Clear
10:53 PM 16.0 °F 4.4 °F 1.9 °F 54% 30.23 in 10.0 mi West 9.2 mph - N/A   Clear
11:53 PM 14.0 °F 2.0 °F 1.9 °F 59% 30.24 in 10.0 mi West 9.2 mph - N/A   Clear